Location: Pl�tzky
(52.0521°N, 11.8020°E)
Time: 08:33:24
(UTC+00:00)

ISS - Pass Details

Date: 22 November 2019
Orbit: 411 x 421 km, 51.6° (Epoch: 15 December)

Event Time Altitude Azimuth Distance (km) Brightness Sun altitude
Rises 17:24:59 0° 202° (SSW) 2,349 0.5 -19.7°
Reaches altitude 10° 17:27:43 10° 177° (S) 1,494 -0.9 -20.1°
Enters shadow 17:28:09 12° 171° (S) 1,397 -1.1 -20.2°
